CREW DRAGON 11

Last updated on Thu Jan 15 2026 00:02:10 GMT+0000 (Coordinated Universal Time)

1 65077U 25166A 26014.62805721 .00006818 00000+0 13044-3 0 9996 2 65077 51.6333 339.6562 0007763 17.9854 342.1408 15.49289811 2146

Satellite not in orbit

CREW DRAGON 11